Home > Weather > Dubbo > Past weeks

Flag for Australia Weather for the Past 2 Weeks in Dubbo, New South Wales, Australia

Now
72 °F

Clear.


Feels Like: 76 °F
Forecast: 63 / 89 °F
Wind: 6 mph from Northeast

Location: Dubbo Airport

Current Time: Feb 9, 2016 at 12:17:06 AM

Latest Report: Feb 8, 2016 at 11:30 PM


Visibility: N/A

Pressure: 30.07 "Hg

Humidity: 61%

Dew point: 57 °F

Location of DubboLocation

Historic Weather in Dubbo — Graph

°F

Dubbo Temperature Yesterday

Maximum temperature yesterday: 88 °F (at 3:00 PM)
Minimum temperature yesterday: 61 °F (at 4:00 AM)
Average temperature yesterday: 74 °F

High & Low Weather Summary for the Past Weeks

 TemperatureHumidityPressure
High91 °F (Jan 25, 3:00 PM)94% (Jan 27, 9:00 AM)30.09 "Hg (Jan 27, 9:00 AM)
Low54 °F (Feb 2, 4:00 AM)3% (Jan 26, 12:00 PM)29.50 "Hg (Jan 30, 5:00 PM)
Average73 °F60%29.81 "Hg
* Reported Jan 24 11:00 PM — Feb 8 11:00 PM, Dubbo, Weather by CustomWeather, © 2016

Note: Actual official high and low records may vary slightly from our data, if they occured in-between our weather recording intervals... More about our weather records

Advertising

Dubbo Weather History for the Previous 24 Hours

 ConditionsComfort  
Time TempWeatherWind HumidityBarometerVisibility
11:00 PM
Mon, Feb 8
73 °FClear.7 mph57%30.04 "HgN/A
10:30 PM73 °FClear.7 mph57%30.04 "HgN/A
10:00 PM75 °FClear.8 mph54%30.04 "HgN/A
9:30 PM75 °FClear.8 mph50%30.01 "HgN/A
9:00 PM73 °FClear.8 mph50%30.01 "HgN/A
8:30 PM75 °FClear.9 mph50%30.01 "HgN/A
8:00 PM79 °FSunny.7 mph42%29.98 "HgN/A
7:30 PM82 °FSunny.8 mph35%29.98 "HgN/A
7:00 PM86 °FSunny.9 mph33%29.98 "HgN/A
6:30 PM88 °FSunny.8 mph29%29.95 "HgN/A
6:00 PM88 °FSunny.8 mph29%29.98 "HgN/A
5:30 PM88 °FSunny.13 mph29%29.98 "HgN/A
5:00 PM88 °FSunny.12 mph31%29.98 "HgN/A
4:30 PM88 °FSunny.12 mph29%29.98 "HgN/A
4:00 PM88 °FSunny.13 mph29%30.01 "HgN/A
3:00 PM88 °FSunny.13 mph31%30.01 "HgN/A
2:00 PM84 °FSunny.10 mph37%30.04 "HgN/A
1:00 PM82 °FSunny.12 mph42%30.07 "HgN/A
12:30 PM82 °FSunny.10 mph42%30.07 "HgN/A
12:00 PM82 °FSunny.12 mph48%30.07 "HgN/A
11:30 AM81 °FSunny.13 mph45%30.09 "HgN/A
11:00 AM79 °FSunny.14 mph48%30.09 "HgN/A
10:00 AM75 °FSunny.13 mph54%30.09 "HgN/A
9:30 AM73 °FSunny.12 mph61%30.09 "HgN/A
9:00 AM70 °FSunny.12 mph69%30.09 "HgN/A
8:30 AM70 °FSunny.12 mph69%30.09 "HgN/A
8:00 AM66 °FSunny.9 mph78%30.07 "HgN/A
7:30 AM63 °FSunny.9 mph83%30.07 "HgN/A
7:00 AM61 °FSunny.10 mph88%30.07 "HgN/A
6:30 AM63 °FClear.12 mph83%30.04 "HgN/A
6:00 AM63 °FClear.13 mph83%30.04 "HgN/A
5:30 AM63 °FClear.12 mph83%30.04 "HgN/A
5:00 AM61 °FClear.9 mph88%30.04 "HgN/A
4:30 AM61 °FClear.8 mph88%30.04 "HgN/A
4:00 AM61 °FClear.8 mph88%30.04 "HgN/A
3:30 AM63 °FClear.7 mph83%30.04 "HgN/A
3:00 AM64 °FClear.8 mph78%30.04 "HgN/A
2:30 AM66 °FClear.9 mph73%30.04 "HgN/A
2:00 AM68 °FClear.12 mph69%30.04 "HgN/A
1:30 AM68 °FClear.10 mph69%30.04 "HgN/A
1:00 AM70 °FClear.10 mph64%30.07 "HgN/A
12:30 AM68 °FClear.8 mph69%30.07 "HgN/A
12:00 AM70 °FClear.9 mph64%30.04 "HgN/A
Weather by CustomWeather, © 2016

See weather overviewHow to use our weather pages